GEFSGL_500_meanwind_270.txt.gz
Wind_Speed
19 19 19 19 19 19 19 19 19 19 19 18 19 20 21 21 21 21 21 20 20 20 20 20 19 19 19 19 19 19 19 19 18 19 19 19 19 19 19 19 19 19 20
21 21 20 20 20 20 20 20 20 20 20 20 20 20 21 21 22 22 22 22 22 22 21 21 21 21 20 20 20 20 20 20 20 20 20 20 20 20 20 20 21 21 21
21 21 21 21 21 21 20 21 21 21 21 21 20 21 22 22 22 22 23 23 23 23 23 23 23 22 22 21 21 21 21 21 21 21 21 21 21 21 21 22 22 22 22
22 22 22 22 22 22 22 22 22 22 22 23 22 22 23 23 23 23 24 23 23 24 23 23 23 24 23 23 22 23 23 22 22 22 22 22 23 23 23 23 24 24 23
23 23 23 23 23 23 23 23 23 23 23 23 23 23 23 23 23 24 24 25 25 24 24 24 24 25 24 24 23 24 24 24 24 24 24 24 24 25 25 25 25 24 24
24 25 25 25 25 25 25 25 25 25 25 25 25 25 24 24 24 24 25 25 25 26 26 26 25 25 25 25 25 25 25 25 25 25 25 25 25 25 26 26 26 26 26
25 26 25 25 26 26 26 26 26 26 26 26 26 26 26 25 25 25 25 25 26 25 26 26 26 26 26 26 26 26 26 26 26 26 26 26 26 26 27 27 27 27 28
26 26 26 25 26 26 26 26 26 27 27 27 27 27 27 26 26 26 27 27 27 26 26 26 26 27 27 27 27 27 27 27 27 27 26 26 27 28 28 28 28 28 28
26 27 26 26 26 27 27 27 28 28 28 29 29 28 28 28 28 29 29 28 28 28 28 28 29 29 29 29 29 29 29 29 28 28 28 29 29 29 29 29 29 29 29
27 27 27 27 27 27 28 28 29 29 30 30 30 30 30 30 30 30 30 30 30 30 30 30 29 29 29 30 30 30 30 31 31 31 31 31 31 31 31 31 31 31 31
27 27 27 28 28 29 29 29 30 30 30 30 31 31 31 31 31 31 31 31 31 31 31 30 30 30 30 31 31 31 32 32 32 32 32 33 33 33 32 33 33 33 32
28 28 28 29 29 30 30 30 30 30 30 31 31 31 32 32 32 32 32 32 32 32 32 31 31 31 31 31 32 32 32 33 33 33 33 34 34 34 34 34 34 34 33
29 29 29 30 31 31 31 31 30 30 30 31 31 31 31 31 32 33 33 33 33 33 33 33 33 33 33 33 33 33 33 34 35 35 35 35 35 35 35 35 35 35 35
30 31 31 31 32 32 32 32 32 32 32 31 31 31 32 32 32 33 33 34 34 35 35 34 35 35 35 35 35 35 35 36 36 36 37 37 37 36 36 36 36 36 36
31 32 32 32 32 33 33 33 33 33 32 32 32 33 33 33 33 34 34 34 34 35 36 36 35 36 36 36 36 36 37 37 37 37 36 36 36 37 37 37 37 36 37
32 33 33 34 33 33 33 34 34 33 33 33 34 34 34 34 35 35 35 35 35 36 36 36 36 37 37 37 37 37 38 37 37 37 38 38 38 38 38 38 38 38 38
34 34 35 35 35 35 35 35 34 34 35 34 34 34 34 35 35 35 36 36 36 37 37 37 36 37 37 38 38 38 38 38 39 39 39 39 40 39 39 39 39 38 39
36 36 36 36 36 36 35 36 36 35 35 34 34 34 34 35 36 36 36 36 36 37 37 37 37 37 38 39 39 39 39 40 40 40 41 41 41 41 40 40 40 40 40
37 36 36 36 36 35 35 36 36 36 36 35 34 34 34 35 35 35 36 36 37 37 37 37 37 37 38 39 39 39 39 39 39 40 40 40 40 41 40 40 40 40 40
35 35 35 35 35 35 35 35 36 35 35 35 35 35 35 35 36 36 36 36 36 37 37 36 36 36 36 36 37 38 38 38 38 38 38 39 40 40 40 40 39 39 39
34 33 33 34 34 34 35 35 36 36 36 36 36 36 36 36 35 36 36 36 37 36 36 36 35 35 36 36 36 36 37 37 37 37 37 38 39 39 39 39 40 40 39
34 34 34 34 34 34 34 35 35 35 36 36 36 35 36 36 36 36 35 35 35 35 35 35 36 36 36 36 36 36 37 37 37 38 38 38 38 39 39 40 40 40 39
34 34 34 34 34 35 35 35 35 35 35 35 35 35 35 36 36 36 36 36 36 36 36 36 36 36 37 37 37 37 37 37 38 39 39 39 40 40 40 40 40 40 39
34 34 34 34 35 35 35 35 35 35 34 35 35 36 36 36 37 37 37 37 37 37 37 37 37 37 38 38 38 37 37 38 38 38 38 38 38 38 39 39 39 39 39
34 34 35 35 35 34 34 35 35 35 35 36 36 36 37 37 37 37 37 37 37 37 37 37 37 37 37 37 37 38 38 38 37 37 37 37 37 38 38 38 39 39 39
35 34 34 34 34 34 34 34 34 34 35 36 36 36 37 37 37 38 38 38 38 37 36 36 36 36 37 37 37 36 36 36 36 36 36 36 36 36 36 37 38 38 38

GEFSGL_500_meanwind_276.txt.gz
Wind_Speed
21 21 21 21 21 21 21 21 21 21 21 21 21 21 21 21 21 21 21 21 21 20 20 20 19 19 19 19 19 19 19 19 19 19 19 19 19 19 19 19 19 19 19
22 22 22 22 22 22 22 22 22 22 22 22 22 23 23 23 22 22 22 22 22 22 21 21 21 21 21 21 21 20 20 21 21 20 20 20 20 20 20 20 21 21 21
23 23 23 23 23 23 23 23 22 23 23 22 22 23 23 23 23 22 23 22 22 22 22 22 22 22 22 22 23 23 22 22 23 22 22 23 22 22 22 22 22 22 22
23 24 24 24 24 23 23 23 23 23 23 23 23 23 23 23 23 23 23 22 23 23 23 23 23 23 23 24 24 24 24 24 24 24 24 24 24 24 24 24 23 23 23
25 25 25 25 25 24 24 24 24 24 24 25 24 24 24 24 24 24 23 24 24 24 24 24 24 24 25 25 25 25 25 25 25 25 25 25 26 26 26 25 25 25 24
25 24 24 24 25 25 25 25 25 25 25 25 25 25 25 24 24 25 25 25 25 25 25 24 24 24 25 26 26 26 26 25 25 25 25 26 26 26 26 26 26 26 26
24 25 25 25 25 26 26 26 26 26 26 26 26 26 25 25 26 26 26 27 26 26 26 26 25 25 25 25 26 27 27 27 27 26 25 26 26 26 27 27 27 27 27
25 25 26 26 26 27 27 27 27 27 27 27 27 27 26 26 27 27 27 28 28 28 27 27 26 25 26 26 27 27 28 28 29 28 27 27 28 28 28 28 28 28 28
27 27 27 28 28 28 28 28 28 28 28 28 28 28 27 27 28 28 28 29 28 28 28 28 27 26 26 27 28 28 28 29 30 30 29 28 29 30 30 29 29 30 29
29 29 29 29 30 30 30 29 29 29 29 29 29 29 29 28 29 29 29 29 28 29 29 29 29 29 28 29 29 29 30 31 31 31 31 30 30 31 31 31 31 31 31
32 31 31 31 31 31 31 31 31 30 30 30 30 30 30 30 30 29 30 30 30 30 30 30 30 30 30 31 31 31 31 31 32 32 32 32 32 32 32 32 33 33 32
32 32 32 32 33 32 32 33 32 32 31 31 31 31 31 31 31 31 31 30 30 30 30 30 31 31 31 31 31 32 32 33 33 32 32 33 33 33 33 34 34 34 34
33 33 34 34 34 34 33 33 33 32 31 31 31 31 31 31 32 32 32 31 31 31 31 32 32 32 32 32 32 32 33 33 34 33 33 33 34 34 34 35 34 35 34
36 35 34 34 34 34 33 33 33 32 32 32 32 32 32 32 32 32 32 31 31 31 31 32 32 32 33 33 33 33 34 35 35 35 35 35 35 34 34 34 34 34 34
35 35 35 35 34 34 34 33 32 33 33 32 32 32 33 33 33 33 33 32 32 31 32 32 32 33 33 34 34 34 35 35 35 36 36 36 35 35 35 36 36 36 35
34 34 34 34 34 34 33 33 33 34 34 34 33 33 33 33 33 33 34 34 34 34 34 34 33 33 34 34 34 34 35 35 36 36 36 37 36 36 36 36 36 37 37
34 34 34 33 33 33 33 34 34 34 34 34 35 35 35 35 35 35 34 34 35 35 34 34 34 35 35 35 35 35 34 34 35 36 37 37 37 37 38 37 37 38 38
34 33 33 33 33 34 34 34 35 35 35 35 35 36 36 36 36 35 35 36 36 36 35 35 35 36 36 36 36 36 36 36 36 36 37 37 37 37 37 38 37 37 37
33 32 32 32 33 33 34 34 35 35 35 35 35 35 36 36 36 36 36 36 36 37 37 37 37 37 37 37 37 37 37 36 37 37 37 37 37 37 37 37 36 36 36
34 33 33 33 33 34 34 34 35 35 35 35 36 35 36 36 36 36 36 36 36 37 36 37 37 37 38 38 38 37 37 37 37 37 37 36 37 37 37 37 37 37 36
34 33 33 33 33 34 34 34 34 34 35 35 35 35 34 35 35 35 35 36 36 36 36 36 36 36 37 37 38 38 38 37 37 37 37 37 37 37 38 38 38 38 37
33 33 32 32 32 33 33 34 34 34 34 34 34 34 34 34 34 34 35 36 36 36 37 37 36 36 37 37 37 37 37 37 37 37 37 37 37 38 38 38 39 39 38
33 32 32 32 33 33 33 32 32 33 33 33 33 33 34 34 35 35 36 36 36 36 37 37 37 37 37 37 37 37 37 37 37 38 38 38 38 38 38 38 38 38 38
33 32 32 32 32 33 33 33 33 33 33 33 33 34 34 34 35 35 36 36 36 37 37 38 38 38 38 38 38 38 38 38 38 39 39 39 38 38 38 38 38 38 38
33 33 33 33 33 33 33 34 34 34 34 34 35 35 36 36 36 36 37 36 37 37 38 38 39 39 39 39 39 39 39 39 39 39 38 38 38 38 37 37 37 37 37
34 34 34 34 33 34 34 34 34 34 35 35 36 36 36 36 36 37 37 37 37 37 37 38 38 38 38 39 38 38 38 38 38 38 38 38 37 37 36 36 36 35 35

GEFSGL_500_meanwind_282.txt.gz
Wind_Speed
18 17 18 18 19 19 19 19 19 19 19 19 19 19 19 19 19 19 20 20 20 20 20 20 20 21 21 20 20 20 20 19 19 19 19 19 19 19 19 19 18 18 18
19 19 19 19 19 19 19 19 19 18 19 19 19 19 20 20 20 20 20 21 22 22 22 21 21 22 22 22 22 22 22 21 20 20 20 20 20 20 20 19 18 18 19
20 20 20 20 19 19 19 19 19 19 19 19 20 20 20 21 21 21 22 22 22 23 23 23 23 23 23 23 23 23 23 23 22 21 21 21 21 21 21 21 20 20 21
21 21 21 21 21 21 20 20 20 20 20 20 20 20 20 20 21 21 22 22 22 23 23 23 24 25 25 24 24 23 23 23 23 23 22 22 22 22 22 22 22 23 23
22 22 22 22 22 22 21 21 21 21 21 22 21 21 21 21 21 22 22 22 22 22 23 23 24 24 24 24 24 24 24 24 24 24 23 22 23 24 24 24 25 25 25
24 23 23 23 23 23 23 23 22 22 22 22 23 23 23 23 23 22 21 22 22 23 23 22 22 23 23 23 23 24 24 24 25 25 24 24 24 25 25 25 26 26 26
25 25 25 25 25 25 25 24 24 24 24 24 24 24 24 24 24 24 23 23 23 24 24 24 24 24 24 23 24 24 25 25 26 26 26 26 26 26 27 27 27 27 28
26 26 27 27 26 26 26 26 26 26 26 26 26 25 25 25 25 26 26 25 25 25 26 26 26 25 25 26 26 26 26 26 27 27 28 27 27 27 28 27 27 28 29
28 28 28 29 28 28 28 27 28 28 28 28 27 27 27 27 27 27 27 27 27 26 27 27 28 28 27 27 28 28 28 28 29 29 29 28 28 28 29 29 29 29 29
29 29 30 30 30 30 29 29 29 29 29 29 28 28 28 28 28 28 28 28 28 28 28 28 28 29 29 29 29 29 29 29 29 30 30 31 30 30 30 31 31 30 30
30 30 31 31 31 31 30 30 30 30 30 30 29 29 29 29 29 29 29 29 29 29 29 29 29 30 30 31 31 31 30 31 31 32 32 32 32 32 31 32 32 31 31
30 31 31 31 31 31 31 31 31 31 31 31 30 30 30 31 31 31 31 31 31 31 31 31 30 30 31 31 31 31 32 32 32 32 33 33 33 33 33 33 33 33 33
30 30 31 31 31 31 31 31 30 30 31 32 32 31 32 33 33 33 33 33 33 32 32 32 32 31 31 31 31 32 33 34 34 34 34 34 34 34 34 34 34 34 34
30 30 30 30 31 31 31 31 31 31 31 31 32 32 32 33 33 34 34 34 33 33 33 33 33 32 32 32 32 32 33 34 34 35 35 34 34 34 34 34 34 34 34
31 31 31 31 31 31 31 31 31 31 31 31 31 32 33 33 33 34 34 33 33 34 34 34 34 34 34 34 34 33 33 34 35 35 35 35 34 34 34 33 33 33 34
30 31 31 31 31 31 31 31 31 31 32 32 32 32 32 33 33 33 33 33 33 34 34 34 34 34 34 34 34 34 35 35 35 36 36 35 35 35 35 34 34 33 33
31 31 30 31 31 31 31 31 31 31 32 32 32 32 32 33 33 33 33 33 33 34 34 34 34 34 34 34 35 35 35 36 35 35 35 36 36 36 36 36 35 34 35
32 32 31 31 31 31 31 31 31 32 32 32 33 33 33 33 33 33 33 33 32 33 33 34 35 35 35 35 35 35 36 36 36 36 36 37 37 38 38 37 36 36 36
32 32 32 32 32 32 32 32 32 32 32 32 32 32 33 33 33 33 33 33 33 33 33 33 34 35 36 37 36 36 36 36 37 37 37 38 38 38 37 37 37 38 37
32 32 32 32 32 31 31 32 32 32 32 32 32 33 33 33 33 33 33 33 33 33 34 33 34 34 35 37 37 37 36 37 37 36 36 36 36 37 37 37 37 38 38
31 31 31 32 31 31 31 32 32 32 33 33 32 33 33 33 33 33 33 33 34 34 34 34 35 35 35 35 35 36 36 36 36 36 35 35 36 36 37 37 37 37 37
32 32 32 32 32 32 32 32 32 33 33 33 32 32 33 33 33 34 34 34 35 34 34 34 35 35 35 35 35 35 36 36 36 36 36 36 36 37 37 37 37 38 38
32 32 32 33 33 32 32 32 31 31 31 31 31 32 32 33 33 32 33 33 33 33 34 34 35 35 35 35 35 35 35 36 37 37 37 37 36 37 37 37 38 38 39
33 33 33 33 33 32 32 32 32 32 31 31 32 32 32 32 32 32 32 32 33 33 33 34 35 35 35 35 35 35 36 36 37 37 37 37 36 36 37 37 38 39 39
34 34 34 33 32 32 31 31 31 31 31 31 31 31 31 31 32 32 33 34 33 33 33 34 34 34 35 35 35 36 36 36 36 36 36 36 37 37 37 38 38 38 38
34 34 32 31 31 31 31 31 31 31 31 31 31 30 31 31 32 33 34 34 34 34 34 35 35 35 35 36 36 36 36 36 36 36 37 37 37 37 38 38 38 37 36

GEFSGL_500_meanwind_288.txt.gz
Wind_Speed
20 20 21 20 19 19 19 19 18 18 18 18 19 19 19 19 19 19 19 19 20 20 20 20 20 20 20 20 20 20 20 20 20 20 21 20 19 19 19 19 19 19 19
20 21 22 21 20 20 21 20 20 20 20 19 20 20 20 20 20 20 20 21 20 20 20 21 21 21 21 21 21 20 21 22 21 21 21 21 21 21 20 20 20 20 21
21 22 20 20 20 21 21 21 21 21 21 21 21 21 21 21 21 21 21 21 21 21 21 21 22 22 22 22 23 22 22 23 23 22 23 23 22 23 22 22 22 21 22
21 21 21 21 21 22 22 22 22 23 22 22 22 22 22 22 22 22 23 23 22 22 23 24 24 24 24 24 24 23 23 23 23 23 24 25 24 24 24 23 23 23 23
23 22 22 23 23 23 24 24 24 24 24 24 24 24 24 24 24 24 24 24 24 23 24 24 25 26 26 25 24 24 25 25 25 24 24 25 25 25 25 25 25 25 25
24 23 24 24 24 25 25 26 26 26 26 25 25 25 25 25 25 25 25 25 24 25 25 25 26 26 26 26 26 26 27 27 27 26 26 26 26 26 26 26 26 25 25
25 25 25 25 25 26 27 27 27 27 27 26 26 26 26 26 26 26 26 26 25 25 25 25 25 26 26 27 27 27 27 28 29 28 27 27 26 27 27 27 27 27 27
26 26 26 26 27 27 28 28 28 28 28 28 27 27 27 27 27 27 27 27 27 26 26 26 25 26 27 28 29 28 27 27 29 30 29 28 27 27 28 29 29 29 29
27 27 27 28 28 29 29 29 30 29 29 28 28 27 27 27 27 27 28 27 27 27 27 27 27 28 28 29 30 30 30 30 30 30 30 29 28 28 29 30 30 30 30
28 28 28 28 28 29 29 30 30 30 30 29 29 28 28 28 27 28 28 29 29 29 29 30 30 29 29 30 30 31 31 31 31 31 32 31 31 30 29 30 31 31 30
29 28 29 29 29 29 29 29 30 30 30 30 30 30 30 30 29 29 30 30 31 31 32 32 32 31 31 32 31 32 32 32 32 31 32 32 32 31 31 31 31 32 32
29 29 29 29 29 29 29 29 30 30 30 30 30 30 30 30 30 30 31 31 32 33 33 33 33 34 34 34 33 33 33 33 32 31 31 32 32 32 32 32 32 32 33
29 29 29 29 30 29 29 29 30 31 31 31 31 30 30 30 31 31 31 31 32 33 33 34 34 34 34 34 34 34 34 34 34 34 33 33 34 34 33 33 33 33 33
29 29 29 29 29 29 29 29 30 31 31 32 32 31 30 31 31 32 31 31 31 33 34 35 35 35 35 35 34 34 34 34 35 35 35 34 34 35 34 34 34 34 34
29 29 29 28 29 29 29 29 30 30 31 32 33 33 32 32 32 33 32 32 32 33 34 33 34 35 36 36 35 35 35 35 35 35 35 35 35 36 36 35 35 36 35
30 29 29 29 29 29 30 30 30 31 32 32 33 33 34 34 33 33 34 34 34 34 34 34 34 34 35 35 35 36 36 36 36 36 36 36 36 36 37 37 36 36 35
31 31 30 30 30 31 31 31 32 33 33 33 33 34 34 34 34 34 34 34 34 34 33 33 34 33 33 34 34 35 35 36 35 35 36 36 36 36 36 36 36 36 36
32 32 32 32 32 32 32 33 34 34 34 34 34 35 34 34 35 34 34 34 33 32 33 33 33 33 33 33 34 34 35 35 36 36 37 37 37 37 37 38 37 37 36
32 33 33 33 33 33 34 34 34 34 34 34 34 34 34 34 34 34 34 34 33 33 32 32 33 32 32 33 33 34 34 35 35 35 36 36 37 37 37 38 38 38 37
33 33 33 33 34 34 34 34 34 34 34 34 33 33 33 33 33 33 33 33 33 32 32 33 33 32 32 32 33 33 34 34 35 35 36 36 37 38 38 37 38 39 38
34 34 34 34 34 34 34 34 34 33 33 33 32 32 31 31 31 31 31 31 32 32 32 33 33 32 32 32 33 33 34 34 35 35 36 36 37 38 38 38 38 39 39
35 34 34 34 34 34 33 33 33 33 32 32 31 31 31 30 30 30 30 31 31 31 32 32 32 32 32 33 33 33 34 34 35 36 36 37 38 38 38 38 39 39 39
34 34 34 34 34 34 33 33 32 32 32 31 30 30 31 31 30 30 31 31 32 32 32 32 32 32 32 33 34 34 35 35 36 36 37 37 38 38 38 38 38 38 38
35 34 34 33 33 33 33 33 32 32 31 30 30 30 31 31 31 31 31 31 31 32 32 32 32 32 33 33 34 34 35 35 35 35 35 36 37 37 37 37 38 38 38
34 34 33 33 33 33 32 32 31 31 31 30 30 30 30 30 29 29 30 30 30 31 31 31 31 32 32 32 33 33 34 34 34 34 34 35 35 35 36 36 37 37 37
33 32 32 31 31 31 31 31 31 31 31 31 31 30 29 29 29 29 29 29 30 30 30 30 31 31 32 32 32 32 33 33 34 34 34 34 35 35 35 36 37 37 37

GEFSGL_500_meanwind_294.txt.gz
Wind_Speed
20 20 21 21 21 22 21 21 21 21 20 20 20 20 19 19 19 19 20 20 20 19 19 19 19 19 19 18 18 19 19 19 19 19 20 19 19 19 19 20 19 19 20
21 21 22 22 23 23 22 23 22 22 21 21 21 21 20 20 20 20 20 21 21 21 21 21 20 20 20 20 20 20 20 20 20 21 21 21 20 21 21 21 21 21 21
21 22 22 23 23 23 23 23 23 22 22 22 22 22 22 22 22 21 21 22 22 22 22 22 22 22 22 22 22 21 21 21 21 23 23 23 23 22 23 23 23 22 22
22 22 23 23 24 23 23 23 23 23 24 24 23 23 23 22 22 23 24 23 23 22 22 22 22 22 23 23 23 23 23 22 23 24 25 25 26 25 24 25 24 24 24
22 22 23 23 23 24 24 24 24 24 25 25 25 25 24 25 24 23 24 25 24 24 24 24 24 24 23 23 24 25 24 24 25 25 25 26 27 26 26 26 26 26 25
22 22 23 23 23 24 24 24 25 25 25 25 25 25 24 25 24 24 24 24 24 24 24 24 24 24 25 25 24 24 25 26 26 26 27 27 27 28 28 27 28 27 27
22 22 23 24 24 24 24 24 25 25 26 26 26 26 25 24 24 25 25 24 24 24 24 25 25 25 24 26 26 26 26 26 26 26 27 27 27 29 29 29 29 29 28
23 24 24 24 24 25 25 26 26 27 27 27 27 27 26 26 26 26 26 26 26 25 25 25 25 25 25 26 26 26 26 27 27 27 27 27 27 28 29 29 30 30 29
24 25 25 25 25 26 27 27 27 27 27 27 27 27 27 27 27 27 27 27 27 26 26 27 27 27 27 28 27 27 27 28 28 28 28 28 29 29 29 30 30 30 30
25 26 26 26 27 27 27 27 27 27 27 27 27 28 28 29 29 29 29 29 28 28 28 29 28 28 28 29 29 28 28 29 30 30 29 29 29 30 30 30 31 31 31
26 26 27 27 28 28 28 28 28 28 28 28 28 29 29 29 30 30 31 30 29 29 30 30 30 29 29 29 29 30 30 30 30 30 30 30 30 31 31 31 31 32 32
27 27 28 28 28 28 29 29 28 28 29 29 29 29 30 30 30 31 32 31 31 31 31 31 31 31 31 31 31 31 32 32 32 32 32 31 31 31 32 32 31 31 32
27 28 29 29 28 28 28 28 29 29 29 29 30 30 30 30 31 31 32 32 32 32 32 32 32 32 32 32 32 32 33 33 33 33 33 32 31 32 32 32 32 32 32
27 27 28 28 28 28 28 28 28 29 29 29 30 30 31 31 31 31 31 31 31 31 32 32 33 34 34 34 34 34 34 33 33 34 33 33 33 33 33 34 34 33 33
27 27 27 27 27 28 28 28 29 29 29 29 30 31 31 31 31 31 31 30 31 31 31 32 33 33 34 34 34 35 35 34 34 34 35 35 35 35 35 35 35 35 35
27 28 28 28 28 28 29 29 30 30 30 30 30 30 30 30 30 30 30 30 30 30 31 31 32 32 32 32 32 33 33 34 35 36 37 37 37 37 36 36 36 37 37
27 28 28 28 29 29 29 29 30 29 29 29 29 30 30 30 31 31 31 31 30 30 30 30 31 31 32 33 33 33 33 34 35 36 37 37 37 37 36 36 37 38 38
28 28 29 29 29 30 30 30 30 30 30 30 30 30 30 30 31 31 31 31 30 30 30 30 30 31 31 31 32 33 33 33 33 34 35 36 37 37 37 37 37 38 38
29 29 29 29 30 30 30 30 30 30 30 30 30 29 30 30 30 31 31 31 30 30 30 30 30 30 30 31 31 31 32 32 33 33 34 35 36 36 36 37 37 38 38
29 30 30 30 30 30 30 30 30 31 31 30 30 29 29 30 29 29 29 29 30 30 30 30 30 29 30 30 30 31 31 32 32 33 33 33 34 34 35 36 37 38 38
30 30 30 31 31 31 31 31 31 31 31 31 31 30 30 30 30 29 29 29 29 29 29 30 29 29 30 30 30 31 31 31 32 33 33 33 33 34 35 35 36 37 38
31 31 31 32 31 31 31 31 31 30 30 30 30 29 29 29 29 29 30 29 29 30 30 29 29 29 30 30 30 30 31 31 31 32 33 34 35 35 35 36 36 36 37
32 32 32 32 31 32 31 31 30 30 29 29 29 28 28 28 28 29 30 30 30 30 30 30 30 30 29 29 29 30 31 31 32 32 33 34 35 36 37 37 37 37 37
33 33 33 33 33 32 31 30 30 29 29 29 29 28 28 28 28 29 29 29 29 29 30 30 30 29 29 30 30 31 32 32 33 34 34 35 35 35 35 36 37 37 36
33 33 33 33 32 32 31 30 30 29 29 29 28 28 28 28 28 28 28 28 28 27 28 28 28 28 29 29 30 31 31 31 32 32 32 32 33 33 34 34 35 35 35
32 32 31 31 31 31 31 30 30 29 29 28 28 28 28 27 27 27 27 26 26 26 27 27 28 28 28 29 29 30 30 30 30 31 31 32 32 32 33 33 34 34 35

GEFSGL_500_meanwind_300.txt.gz
Wind_Speed
20 21 21 21 21 22 22 21 22 22 23 23 23 22 22 21 21 22 22 22 21 21 21 20 20 20 20 20 20 20 19 19 18 17 17 17 17 18 18 18 18 19 19
22 21 22 22 22 22 22 22 23 23 23 23 23 23 22 22 22 22 22 23 22 22 21 21 21 20 21 21 21 20 20 20 19 19 19 19 19 20 20 20 21 21 21
23 23 23 22 22 22 23 23 24 24 24 24 24 23 23 24 23 23 23 23 23 22 22 22 21 21 21 21 22 21 21 22 21 21 21 21 21 21 21 22 23 22 22
23 23 23 23 23 23 24 24 24 25 25 25 25 25 24 24 23 23 23 23 23 23 22 22 22 21 21 21 22 22 23 23 23 23 22 23 23 23 23 23 24 23 23
22 23 23 23 24 25 25 25 26 26 27 27 26 25 25 25 24 24 23 23 23 23 23 23 22 22 22 21 22 22 23 24 24 23 24 24 25 25 25 25 26 25 24
22 23 23 24 24 25 26 26 27 26 26 26 26 26 25 25 25 25 24 24 24 23 22 22 23 23 22 21 21 22 22 23 24 24 24 24 25 26 26 26 27 25 25
23 23 23 24 24 25 26 26 26 26 26 26 26 26 26 26 26 26 26 25 25 24 24 23 24 24 23 23 23 23 23 24 24 24 25 25 26 27 27 28 28 27 26
24 24 24 25 25 26 26 26 26 26 26 26 26 27 27 27 27 27 27 26 26 25 25 25 25 25 25 25 25 25 25 25 25 25 25 26 27 28 28 29 29 29 28
26 26 26 26 26 26 27 27 27 27 27 27 27 27 27 27 27 28 27 27 27 26 26 27 27 27 27 27 27 27 27 27 27 27 26 27 28 28 29 29 30 30 29
27 27 27 27 28 28 28 28 27 27 28 28 28 28 27 27 28 28 28 28 28 28 28 29 29 29 29 29 28 28 27 28 28 28 28 27 28 30 30 30 30 30 30
28 28 28 28 28 29 29 29 28 28 28 28 28 28 28 28 29 29 29 29 29 29 29 30 30 30 30 29 29 29 29 30 30 31 30 29 29 30 30 30 30 30 31
29 29 29 29 29 29 29 29 29 29 29 29 29 29 29 28 28 29 29 29 30 30 30 30 31 31 31 30 30 31 31 31 31 31 31 30 30 31 31 31 31 31 31
29 29 29 29 29 29 29 29 29 29 29 29 29 29 28 28 29 29 29 30 30 30 30 30 30 30 30 30 31 31 32 32 32 32 32 31 31 31 32 32 32 32 32
30 30 29 29 29 29 30 30 30 30 30 30 29 29 29 29 29 30 30 30 31 30 31 31 31 30 31 31 31 30 31 31 32 32 32 32 32 32 32 32 33 32 32
30 30 30 30 30 30 31 31 31 30 30 30 30 30 30 30 30 30 30 31 31 31 31 31 31 31 31 32 32 31 31 31 31 32 32 32 32 32 32 32 33 33 33
29 29 30 30 30 31 31 31 30 30 30 31 30 30 30 30 30 30 30 30 31 31 31 31 31 31 31 30 31 31 32 32 32 32 32 32 32 32 32 32 32 33 34
29 29 29 30 30 31 31 31 30 30 30 30 30 30 30 30 31 31 31 31 31 31 31 30 30 31 30 31 31 31 32 32 33 32 33 33 33 33 32 32 33 33 34
29 29 30 30 31 31 30 30 30 30 30 30 30 30 30 30 31 31 31 31 30 30 30 30 30 30 31 31 31 32 32 31 31 31 32 33 33 33 33 33 32 32 33
28 29 29 30 30 30 30 29 29 30 30 30 30 30 30 30 31 31 31 31 30 29 29 29 29 29 29 30 31 31 30 30 30 31 31 32 33 33 33 34 33 33 33
29 28 28 29 29 30 31 30 30 30 30 30 30 30 31 31 31 31 30 30 30 30 30 30 29 29 30 30 30 30 30 29 29 30 30 30 31 32 32 32 32 33 32
29 29 29 29 30 30 31 31 30 31 31 31 31 31 31 30 30 30 29 29 29 29 29 30 30 31 31 31 30 30 29 30 30 31 31 31 31 31 31 31 32 32 33
29 29 29 29 30 30 30 30 31 31 31 32 31 31 31 31 31 30 30 29 29 29 29 29 30 30 30 30 30 29 29 29 30 30 31 30 30 30 30 31 32 32 33
30 30 31 31 32 32 31 31 31 32 32 32 32 32 31 31 30 30 29 29 28 28 28 29 29 29 29 29 29 29 29 29 29 29 29 29 29 30 31 32 32 33 33
30 31 31 32 32 31 31 31 32 32 32 32 32 32 31 31 30 30 30 29 29 28 28 28 28 28 28 28 28 29 29 29 29 29 29 29 29 29 30 31 31 31 32
30 31 31 31 31 31 31 31 31 31 31 31 30 31 30 30 30 30 30 30 29 29 28 28 27 26 26 26 27 27 27 28 28 28 29 29 30 30 30 30 30 31 31
32 32 32 31 30 31 31 31 30 30 30 30 30 31 31 30 31 31 31 30 29 29 29 28 27 26 26 26 26 25 26 27 28 28 28 28 29 29 29 29 30 30 31

GEFSGL_500_meanwind_306.txt.gz
Wind_Speed
19 19 19 19 19 19 19 19 19 19 19 19 19 19 19 20 20 20 20 19 19 19 20 20 20 19 20 20 20 20 20 20 20 20 19 19 20 20 20 20 20 19 19
20 20 20 20 20 21 21 21 20 20 20 20 21 21 20 21 21 20 20 20 20 20 20 20 20 21 21 21 21 21 21 20 20 20 19 20 20 21 21 21 21 20 20
20 20 20 20 20 21 21 22 22 21 21 22 22 22 21 21 21 21 20 20 21 21 21 22 21 21 21 22 21 21 22 22 21 20 20 20 20 21 22 22 22 22 21
20 20 20 21 21 21 21 22 22 22 22 22 22 22 22 22 22 22 21 21 22 22 22 23 23 22 22 22 22 22 23 23 23 22 22 21 21 22 23 23 24 24 23
20 20 21 21 21 22 22 23 23 23 22 23 23 22 22 22 22 22 23 22 22 22 23 23 23 23 22 23 23 23 23 23 23 23 23 23 23 24 24 25 25 25 25
21 21 21 22 23 23 23 23 24 24 24 24 24 23 23 23 23 23 23 23 23 23 23 23 24 24 24 23 23 24 23 23 23 23 23 24 24 25 26 26 26 26 27
22 22 22 23 23 24 24 24 25 25 25 25 25 24 24 24 24 24 23 23 23 23 24 24 25 25 25 26 26 25 25 25 25 24 25 25 26 26 26 27 28 28 28
23 24 24 24 24 25 25 25 25 25 25 25 25 24 24 24 25 25 25 25 24 24 24 24 24 25 25 25 26 26 26 25 25 25 26 26 27 27 28 28 29 29 29
24 24 25 25 25 26 27 26 26 26 26 26 25 25 26 25 26 26 26 26 25 25 25 25 25 24 25 26 27 27 27 27 27 27 27 27 27 27 28 29 29 30 30
25 26 26 27 27 27 27 27 27 27 27 27 27 27 27 27 27 27 27 27 26 26 26 26 26 26 27 28 28 29 29 28 28 28 28 28 27 27 27 28 29 30 30
27 27 27 27 28 28 28 28 27 27 28 28 28 29 28 28 28 27 27 27 27 27 27 27 28 28 27 28 28 28 29 29 28 28 28 28 27 27 28 28 29 30 30
28 27 28 27 28 28 28 28 28 28 29 30 30 30 29 29 29 28 28 28 28 28 27 28 28 28 28 28 28 28 28 28 28 28 28 28 28 28 29 30 30 30 30
28 27 27 27 27 27 28 28 29 29 30 30 30 30 30 29 29 30 30 29 29 28 28 28 28 28 28 28 29 29 29 29 29 28 28 28 28 29 29 30 31 31 31
28 27 27 27 27 27 28 28 29 29 30 30 30 29 29 30 30 30 30 30 29 29 28 28 28 28 27 28 29 29 28 29 29 29 29 29 29 29 29 29 30 31 31
27 27 26 26 26 26 27 27 28 28 28 29 29 29 29 29 29 29 28 28 28 28 29 29 28 28 27 27 28 28 28 29 29 29 29 29 29 29 29 30 30 31 31
26 26 25 25 25 26 27 27 27 28 28 28 29 30 29 29 29 28 28 28 28 28 27 27 27 27 27 28 28 29 29 29 29 29 30 30 30 30 30 31 31 31 31
26 25 25 25 25 26 27 28 28 28 28 29 29 29 29 28 28 28 28 28 29 29 28 27 27 27 27 27 29 29 29 29 30 30 30 30 31 31 31 32 32 32 32
26 26 26 26 25 25 26 27 28 29 29 29 29 29 29 29 29 28 28 28 28 29 28 28 28 28 28 27 28 28 29 29 29 30 30 31 31 31 31 31 32 32 33
26 26 27 27 27 27 27 27 28 28 29 29 29 29 29 29 29 29 28 27 27 28 28 28 28 28 28 28 28 28 28 29 29 30 31 31 31 31 31 32 32 32 32
26 26 27 28 28 27 28 27 27 26 27 28 28 29 29 29 29 29 28 28 28 28 28 28 28 28 28 29 28 28 29 29 29 29 30 31 31 32 32 32 31 31 31
27 27 27 27 27 27 27 27 27 27 27 27 28 29 28 27 28 28 28 28 28 28 28 28 28 28 28 28 28 29 29 29 29 30 30 31 31 31 31 31 31 31 31
27 26 26 26 26 26 26 27 27 28 28 27 27 27 27 27 27 26 27 28 28 28 27 27 27 27 28 28 28 28 28 28 29 29 30 30 30 30 30 30 31 31 31
26 26 26 26 26 26 27 27 27 28 28 27 28 28 27 27 28 27 27 27 27 27 27 27 27 28 28 28 28 28 28 28 28 28 28 29 29 30 30 30 30 30 30
25 26 26 27 27 27 28 28 28 28 29 29 29 29 29 29 29 28 28 27 27 26 26 26 27 27 27 27 28 28 28 27 28 28 28 28 28 29 29 29 30 29 29
27 27 28 28 28 28 28 27 27 28 29 29 29 28 29 29 29 28 28 27 27 27 27 28 28 27 27 27 27 27 27 28 28 28 28 28 28 28 29 29 29 29 30
28 29 29 29 29 29 29 29 29 29 29 29 28 28 29 29 28 29 28 28 28 28 28 28 28 28 28 28 28 28 28 29 29 29 28 28 28 28 28 28 28 29 29

GEFSGL_500_meanwind_312.txt.gz
Wind_Speed
19 19 19 19 19 19 20 20 20 21 21 21 20 20 20 19 19 18 19 19 19 19 19 19 19 20 20 20 20 19 19 19 19 20 21 22 21 21 21 21 21 21 21
19 20 20 20 20 20 21 21 21 22 22 21 21 21 21 20 20 20 20 20 20 20 20 20 20 20 21 21 20 20 20 20 20 21 21 22 22 22 21 22 23 23 22
20 20 20 21 21 22 22 22 22 23 23 23 23 23 22 22 21 21 21 21 20 20 21 21 21 20 21 21 21 22 21 21 21 21 22 22 22 22 22 23 23 24 24
20 20 21 22 22 22 23 23 24 24 24 24 24 24 24 24 24 23 22 22 22 22 21 21 21 21 21 22 22 23 23 22 22 21 21 21 22 22 23 23 23 24 25
21 22 22 23 23 24 24 25 25 25 25 25 25 24 25 25 25 24 24 23 23 22 22 22 22 23 23 23 24 24 24 23 23 23 22 22 23 23 23 23 24 24 25
22 23 23 24 25 25 26 26 25 26 26 26 25 25 25 25 26 25 24 24 24 23 23 23 23 24 24 24 25 24 24 24 24 23 22 23 24 24 25 25 25 25 25
24 24 25 25 26 26 26 26 26 26 26 26 25 25 25 26 26 26 25 25 25 24 24 24 24 25 25 26 26 25 25 25 26 25 25 25 25 25 26 26 26 26 27
25 26 26 26 26 27 27 27 27 27 26 26 26 25 24 25 25 25 26 26 26 25 25 24 25 25 25 26 26 26 27 27 27 26 27 27 27 27 27 26 26 27 27
27 27 27 27 28 28 28 28 28 28 27 27 27 26 25 25 25 26 26 25 25 24 24 25 25 25 26 26 26 27 27 27 27 27 28 28 28 28 28 28 27 26 26
28 28 28 28 29 29 28 28 28 28 28 28 27 27 26 26 26 26 26 27 26 26 25 26 27 27 27 28 27 27 27 27 28 27 28 28 28 28 28 28 28 27 27
29 29 29 29 29 28 28 28 28 28 28 28 27 27 27 28 27 27 27 27 27 27 26 26 27 28 29 29 29 28 28 29 29 29 29 29 29 28 28 28 28 28 27
29 29 29 28 27 28 28 27 27 28 28 28 28 28 28 28 28 28 28 28 29 28 27 27 28 28 29 29 29 29 29 29 29 29 29 28 28 28 28 28 28 28 27
29 29 29 27 27 27 27 26 27 27 27 27 27 28 28 29 29 29 29 29 29 29 28 28 29 29 30 29 30 30 30 29 29 29 28 28 28 28 29 29 29 29 29
29 29 27 27 26 26 25 25 25 26 27 27 27 27 27 28 28 28 29 29 29 29 29 30 30 30 30 30 30 30 29 29 29 28 28 27 28 28 29 29 29 29 29
29 28 27 27 26 25 25 24 25 26 26 26 26 26 26 27 28 29 29 29 30 30 31 31 31 30 30 29 29 29 29 29 28 28 28 28 29 29 29 29 29 29 29
28 27 27 27 27 26 26 25 25 25 25 25 25 26 27 28 28 28 29 29 29 30 29 29 29 28 29 28 28 29 29 29 28 28 28 28 29 30 30 30 30 30 30
28 27 26 26 26 26 26 25 25 24 25 25 26 27 27 28 28 28 28 29 29 29 29 28 27 27 27 27 27 28 28 28 28 28 28 28 29 29 29 30 31 31 31
28 27 27 27 27 27 26 25 25 25 25 26 26 27 27 28 28 28 27 28 29 29 28 28 28 27 28 28 28 28 28 28 28 28 29 28 29 29 29 30 31 31 32
27 27 26 26 26 27 27 26 26 26 26 27 27 28 28 28 27 27 26 26 27 28 27 27 28 28 29 29 29 28 28 28 28 28 28 29 30 30 30 31 32 32 32
27 27 27 26 26 26 26 27 27 27 27 27 27 27 27 27 27 27 27 26 27 26 26 27 26 26 27 28 28 28 28 28 29 29 29 30 31 31 31 31 32 32 32
27 26 27 26 27 27 27 27 28 28 27 27 27 27 26 26 26 26 26 26 26 25 25 26 26 26 26 26 26 27 27 28 29 29 30 30 30 30 30 29 30 31 31
26 26 27 27 27 27 27 27 27 27 27 27 27 27 27 27 27 27 27 26 26 26 26 26 26 25 25 25 26 26 27 28 28 29 29 29 29 29 29 29 30 31 31
26 27 27 27 26 27 27 27 27 27 26 26 27 27 27 27 27 26 26 26 26 27 26 26 25 26 25 25 25 26 26 27 28 28 29 29 29 30 30 31 30 30 30
26 27 27 27 27 26 26 26 26 26 27 27 27 27 27 27 27 27 26 26 26 27 26 27 27 27 27 26 26 26 27 28 28 28 28 28 29 29 30 30 30 30 30
27 27 27 28 28 27 27 27 27 27 28 28 28 28 27 28 27 27 27 27 27 27 27 27 27 27 27 27 28 28 28 28 28 28 28 28 29 29 30 30 30 30 30
28 28 28 28 28 28 28 28 28 28 28 28 28 28 28 28 29 28 27 27 28 28 28 28 29 28 28 28 28 28 28 28 28 28 29 29 30 30 31 31 31 31 31

GEFSGL_500_meanwind_318.txt.gz
Wind_Speed
19 19 19 19 20 20 21 21 21 22 22 22 22 22 22 23 23 22 22 22 22 23 23 23 23 24 24 24 24 24 24 24 23 23 22 22 22 22 23 24 24 23 23
20 20 20 21 21 22 23 23 23 23 23 23 23 23 23 23 24 24 24 24 24 24 24 24 24 24 24 24 24 24 24 24 23 23 23 22 22 22 22 22 23 23 23
20 21 21 22 22 23 24 24 24 24 24 24 24 24 25 25 25 25 25 25 25 25 25 25 25 25 25 24 24 24 24 23 23 23 23 23 22 22 22 22 22 23 23
21 22 22 23 23 24 24 24 25 25 25 25 25 25 25 26 26 26 26 26 26 26 26 26 26 26 26 26 25 25 25 25 24 23 23 22 22 22 22 22 22 23 23
22 23 23 24 24 24 25 25 26 27 26 25 25 26 26 26 26 27 27 27 27 26 26 26 26 26 26 25 25 24 25 25 24 22 22 23 23 22 23 23 23 23 24
23 23 24 25 25 25 26 26 27 27 27 27 27 27 27 27 28 27 27 26 26 26 26 26 26 26 25 25 25 25 25 24 24 24 23 23 23 23 24 24 24 25 25
24 25 25 25 25 26 26 26 26 27 27 27 27 28 28 28 28 27 27 27 27 26 26 26 26 26 26 26 26 26 25 25 25 26 25 25 24 25 25 25 25 25 25
26 26 26 26 26 26 26 26 26 26 26 26 26 26 27 27 27 26 26 26 26 26 26 26 26 26 27 27 26 26 27 27 27 26 26 27 26 26 26 26 26 26 26
26 26 26 26 26 27 27 27 26 27 26 26 26 26 26 25 25 26 26 25 25 25 26 25 25 25 26 26 26 27 27 27 27 27 27 27 28 28 28 27 27 27 27
26 26 26 26 26 27 27 27 27 27 26 26 26 25 25 25 25 26 26 26 26 25 26 26 26 26 26 27 27 28 28 29 29 28 28 28 29 29 29 29 28 28 28
27 27 27 27 27 27 27 27 27 27 27 26 25 25 25 25 25 26 26 26 26 25 26 26 26 27 27 27 28 27 28 29 29 29 29 29 30 30 30 30 30 30 30
27 28 28 28 28 27 27 27 27 27 26 26 25 25 25 25 25 26 27 27 27 27 26 25 26 27 28 28 28 28 28 29 29 29 29 29 30 30 30 30 30 30 31
27 28 28 28 28 28 28 27 27 27 26 26 26 25 26 26 26 26 27 27 27 26 26 26 27 28 28 28 28 28 29 29 30 30 30 30 30 30 31 31 31 30 31
28 29 28 28 28 28 27 26 26 26 25 26 26 26 26 25 26 26 26 27 27 27 28 28 28 28 28 28 28 28 28 29 30 31 31 30 30 31 31 31 31 31 31
28 28 28 27 28 27 27 27 27 27 26 26 26 26 26 26 26 26 26 26 26 27 28 28 28 28 28 28 29 29 29 29 30 31 31 31 31 31 31 31 31 32 31
28 28 28 27 27 27 27 27 27 27 27 27 27 27 26 26 26 26 26 26 26 27 27 27 28 29 28 28 28 29 30 30 30 30 31 31 31 32 32 32 31 31 32
28 28 28 28 27 27 27 27 27 26 26 27 27 27 26 26 26 26 26 27 27 27 27 28 28 29 29 28 28 29 29 29 30 30 30 30 30 30 31 31 32 32 32
28 28 27 27 27 27 27 27 27 26 26 26 27 27 27 26 26 27 27 27 27 27 27 28 28 28 28 27 27 28 28 28 28 28 28 29 29 29 29 30 31 31 32
27 27 27 26 26 27 27 27 27 27 26 26 27 26 26 26 26 27 27 27 27 27 28 28 28 28 28 27 28 27 27 26 26 26 26 27 28 28 29 29 30 31 32
27 26 26 27 27 27 27 28 27 27 27 27 27 27 26 26 26 25 25 26 26 27 27 28 27 27 26 26 26 27 27 26 26 26 27 27 28 29 30 30 30 31 32
26 26 26 27 27 27 27 27 26 26 26 26 26 26 25 25 25 25 25 25 25 26 26 26 26 26 26 26 26 26 26 26 25 26 27 28 30 30 31 31 32 32 32
25 26 26 26 26 27 27 26 26 26 25 25 25 24 24 24 25 25 25 25 25 25 24 24 24 25 25 25 25 25 26 26 26 27 28 29 30 30 31 31 31 32 32
24 24 25 25 25 25 25 24 24 25 25 24 24 25 25 24 24 25 25 25 25 26 26 25 25 25 25 25 25 26 26 27 27 28 28 29 29 29 30 30 30 31 31
24 24 24 24 24 24 24 24 24 24 24 25 25 25 24 24 25 25 25 25 26 26 26 26 26 25 25 26 26 26 27 28 29 29 30 30 29 29 29 29 29 30 30
24 24 24 24 24 24 24 24 24 24 24 24 24 24 24 24 24 25 25 25 26 26 25 26 26 27 27 27 27 27 27 27 27 28 29 29 29 29 29 28 28 29 29
24 24 24 24 24 24 24 24 24 24 24 25 24 24 24 24 25 25 25 25 26 26 26 27 27 28 28 28 28 28 28 28 28 27 27 28 28 28 29 29 29 29 30

GEFSGL_500_meanwind_324.txt.gz
Wind_Speed
21 21 21 22 22 22 22 23 23 24 24 24 23 23 23 24 24 24 24 24 24 24 25 25 25 25 25 24 24 24 24 25 24 24 24 25 24 24 23 23 23 23 23
22 22 23 23 23 24 24 24 24 24 24 23 24 24 24 24 25 26 26 25 25 26 25 26 26 26 26 26 26 25 25 25 24 24 24 24 24 24 24 23 23 22 22
23 23 24 24 24 25 25 25 24 24 23 23 23 24 25 25 26 26 26 26 27 26 26 26 26 26 27 26 26 26 26 26 25 25 24 25 25 25 24 24 23 22 22
24 25 25 25 25 25 25 24 24 24 24 24 25 25 25 26 26 26 27 27 27 27 27 27 27 27 27 27 26 26 26 26 26 26 26 25 25 24 24 24 24 23 23
26 26 25 26 26 26 25 25 25 25 25 25 25 26 26 26 26 27 27 27 27 28 28 27 27 27 27 26 27 27 27 27 26 27 27 27 26 25 25 25 25 24 24
26 27 27 27 27 26 26 26 26 26 26 26 26 26 26 27 27 27 27 27 27 27 27 27 27 27 27 26 27 27 27 28 28 28 28 28 27 27 27 26 26 25 25
27 27 27 27 27 26 26 27 26 26 26 27 26 26 27 27 28 28 27 27 27 27 27 27 28 28 28 28 28 28 28 28 29 28 28 28 28 27 27 27 26 26 25
28 27 27 28 27 27 26 27 26 26 26 26 26 26 26 26 26 26 27 27 27 27 27 27 27 27 28 28 29 29 29 28 28 28 28 28 28 27 27 27 27 26 26
28 28 28 28 28 27 27 27 27 27 27 27 27 26 26 26 26 26 27 28 28 28 28 28 28 29 29 29 30 30 29 29 29 29 29 29 28 28 28 28 28 28 27
29 29 29 28 27 27 27 27 27 27 27 28 28 28 27 27 27 27 27 28 28 28 28 28 28 28 29 30 30 29 29 29 29 29 30 30 30 30 29 29 29 30 29
28 28 28 28 28 28 27 27 27 28 28 28 29 29 28 28 27 27 27 28 28 28 28 28 28 28 28 29 29 29 29 29 30 30 30 30 30 30 30 30 30 30 29
27 27 28 27 27 28 27 28 28 28 29 29 29 29 28 28 28 27 27 27 28 28 28 28 28 28 29 29 29 29 29 29 30 30 30 30 30 30 30 30 30 30 30
27 27 27 27 27 28 28 28 28 29 29 28 29 29 29 29 29 28 28 28 28 28 28 29 28 29 29 29 28 28 28 28 28 28 29 29 30 29 30 30 31 31 31
27 27 27 27 28 28 28 28 29 29 29 28 29 29 30 29 29 29 29 29 29 29 29 28 28 28 28 28 28 27 28 28 28 28 27 28 29 30 30 30 31 32 32
28 28 27 28 28 28 28 28 29 29 29 29 29 29 29 29 29 29 30 30 30 29 28 28 29 28 28 28 28 27 27 27 28 28 28 28 29 29 30 30 31 32 32
28 28 28 29 29 29 29 29 29 29 29 29 29 28 29 29 29 29 29 29 29 29 29 28 28 27 27 27 28 28 27 27 28 28 27 28 29 30 30 30 31 31 32
29 29 29 29 29 29 28 28 28 28 28 28 28 28 28 29 29 28 28 28 29 29 29 28 27 27 27 27 27 27 28 29 29 29 28 28 28 29 29 29 30 31 31
30 29 29 29 29 29 28 28 27 27 27 27 26 27 27 28 28 28 28 28 28 29 29 29 29 28 28 28 28 28 28 29 29 29 28 28 28 27 28 29 29 30 31
30 30 29 28 28 28 28 27 27 27 27 26 26 26 26 26 27 27 27 28 28 28 28 29 29 29 28 28 28 27 27 27 27 28 27 26 26 26 27 28 29 29 30
29 28 27 27 27 27 27 27 27 27 28 27 26 26 26 25 26 26 26 27 28 28 28 28 28 29 28 28 27 27 27 26 26 26 26 26 26 26 27 27 28 29 29
28 27 27 27 26 27 27 27 27 27 28 27 27 27 26 26 26 25 26 27 28 28 28 28 28 28 27 26 27 27 27 26 25 24 24 25 25 26 27 27 27 27 28
28 28 27 27 28 28 27 27 27 28 28 28 28 27 27 27 27 27 27 27 27 27 27 27 26 26 26 25 25 25 25 25 25 25 25 25 26 27 27 27 26 26 27
28 28 28 28 29 28 28 28 27 27 26 26 26 26 27 27 28 28 27 27 27 26 26 26 25 25 25 25 25 25 25 25 24 25 25 26 26 27 27 27 27 27 28
28 28 29 28 28 27 27 27 27 26 27 26 26 26 27 27 28 28 28 28 27 27 26 25 25 26 26 26 25 25 26 26 25 25 26 26 27 27 27 27 27 28 28
27 27 27 27 27 27 27 26 25 25 25 25 25 25 26 26 27 27 28 27 27 26 25 25 25 25 25 25 25 26 26 26 26 25 25 26 26 26 26 26 27 27 27
27 27 26 26 26 26 26 26 26 26 25 25 25 25 25 26 26 27 27 27 26 26 25 25 26 26 26 26 26 27 27 26 26 26 25 25 25 25 25 25 26 26 27

GEFSGL_500_meanwind_330.txt.gz
Wind_Speed
18 18 19 19 20 20 20 20 20 20 20 21 21 20 20 20 21 21 22 22 22 22 23 24 24 25 25 26 26 26 26 26 25 24 24 24 25 24 25 24 24 24 25
19 19 20 20 21 21 21 21 21 21 21 22 22 22 21 21 22 23 23 23 23 24 24 24 25 25 25 26 27 27 27 27 27 26 25 25 25 25 25 25 25 25 25
20 20 21 21 22 22 22 22 22 22 22 23 23 23 23 23 23 23 24 24 24 25 24 24 25 26 26 26 27 27 27 27 27 27 26 26 26 25 25 26 26 25 25
21 21 22 22 22 23 23 23 24 23 24 24 24 24 24 24 24 25 25 25 26 26 26 26 26 26 26 27 27 28 28 27 28 28 27 27 27 27 27 26 27 26 25
22 23 23 24 24 24 24 24 24 24 24 24 24 24 25 25 25 26 26 26 27 27 27 27 27 28 27 27 27 28 28 28 28 28 28 27 27 28 28 27 27 27 26
24 24 25 26 26 25 25 25 25 25 26 25 25 25 25 25 26 26 26 26 27 27 27 27 28 28 28 28 28 28 29 29 29 29 29 28 28 28 28 28 28 27 27
25 26 26 26 27 27 27 27 27 26 27 26 26 26 26 26 26 26 26 26 26 27 28 28 28 29 29 29 29 29 29 29 30 30 30 29 29 29 29 29 29 28 28
25 26 27 27 27 27 27 27 27 27 27 27 26 26 26 26 26 26 26 26 26 27 28 28 29 29 29 29 30 30 30 30 30 29 30 30 30 30 30 30 29 29 29
27 27 27 27 27 27 27 27 28 28 28 28 27 26 27 27 27 27 27 27 27 26 26 26 27 28 28 29 29 29 29 29 30 30 30 30 31 31 30 30 30 30 30
27 27 27 27 27 27 27 27 27 28 27 27 27 27 27 27 27 27 28 27 26 25 25 26 26 26 27 28 28 28 29 29 30 31 31 31 31 31 31 31 30 30 29
28 28 27 27 27 27 27 27 27 27 28 28 27 28 28 28 28 27 27 25 25 25 25 26 26 26 26 27 27 28 29 29 29 30 31 31 31 31 31 31 31 31 30
28 28 28 28 28 28 28 28 28 28 29 28 28 28 28 28 28 27 26 26 26 26 26 27 26 26 26 26 27 28 28 28 29 29 30 31 31 31 31 31 31 31 32
29 28 28 29 28 28 29 29 29 29 29 29 29 29 29 29 28 26 26 26 25 26 26 26 26 26 27 27 27 28 28 29 29 29 30 31 31 31 31 32 32 32 33
29 29 29 29 28 29 29 29 29 29 29 29 29 29 29 29 28 26 26 26 26 26 26 26 26 27 27 27 28 28 27 28 29 29 29 30 31 31 31 31 32 33 33
29 29 29 29 29 29 29 29 29 28 29 28 28 28 29 28 27 26 26 26 26 26 26 27 27 27 27 28 28 28 28 28 29 30 29 29 30 31 31 32 33 33 33
28 28 28 28 28 29 29 29 29 29 29 29 29 28 28 28 27 27 27 27 27 27 27 27 27 27 27 27 27 28 28 28 29 30 30 30 30 30 31 31 32 32 32
28 28 28 28 28 28 28 28 28 29 29 29 29 29 29 28 27 27 26 26 26 26 27 27 26 26 27 27 27 27 28 28 29 29 30 30 30 31 31 30 31 32 32
28 28 28 28 28 28 28 28 28 28 28 28 29 29 28 27 26 26 26 26 26 26 26 26 26 26 26 27 27 27 27 28 29 29 30 31 31 31 30 30 30 31 31
28 28 28 28 28 28 29 29 29 29 29 29 28 28 27 27 26 26 26 26 26 26 26 26 26 26 27 27 27 27 27 27 28 29 29 30 30 30 30 30 30 31 31
28 27 28 28 29 28 29 29 29 29 29 28 28 28 28 28 27 27 27 27 26 26 26 26 26 27 27 28 28 27 27 27 28 28 28 28 29 30 30 30 30 31 31
29 29 29 29 29 29 29 29 29 29 29 29 29 28 28 27 26 26 26 26 26 25 25 25 25 26 26 27 28 27 27 27 28 28 28 27 28 28 28 28 29 29 30
29 29 30 29 29 29 29 29 30 30 29 29 28 28 27 27 27 26 26 26 25 25 25 24 24 25 26 27 28 29 29 28 27 26 26 26 25 25 24 25 25 26 27
30 30 30 30 29 28 28 28 28 29 29 29 28 28 28 28 28 27 27 26 25 25 25 24 24 25 25 25 26 26 26 25 25 24 24 24 24 23 24 24 24 25 25
30 30 30 30 28 28 27 27 28 27 27 27 27 27 27 28 27 26 26 25 25 25 25 25 25 25 24 24 23 24 24 24 23 24 23 23 23 23 23 23 24 24 24
30 29 29 29 28 28 27 27 27 27 26 26 27 27 27 27 26 26 25 25 25 25 25 25 25 25 25 24 25 24 24 23 23 23 23 23 23 22 22 23 23 24 24
29 29 28 28 28 27 27 27 26 26 27 27 27 27 27 27 27 26 25 25 25 26 25 25 25 25 25 25 24 24 24 24 23 23 23 22 22 22 22 23 23 23 23

GEFSGL_500_meanwind_336.txt.gz
Wind_Speed
18 19 20 20 20 20 21 21 22 22 22 22 22 23 23 23 24 24 24 24 24 24 24 24 23 23 24 24 25 25 25 25 24 24 25 26 26 26 26 26 26 26 25
19 20 21 21 21 21 22 22 23 23 23 23 24 24 24 24 25 25 25 25 25 25 25 25 25 25 25 25 25 26 26 26 26 25 26 26 27 28 28 28 27 27 26
21 21 21 22 22 23 23 23 24 24 24 24 24 24 24 25 25 25 26 25 25 26 26 26 26 26 26 26 26 27 27 27 27 27 26 27 28 28 29 28 28 28 27
22 22 23 23 23 24 24 25 25 25 25 24 24 24 25 25 26 26 26 26 26 26 26 26 27 27 27 27 27 27 28 28 28 28 28 28 28 28 28 29 29 29 29
23 24 24 24 25 25 25 26 26 26 25 26 26 25 25 25 26 26 26 26 26 26 26 26 27 27 27 28 28 29 28 28 28 29 29 29 29 29 29 29 29 29 30
24 25 25 25 26 26 26 27 27 27 27 27 27 26 26 26 26 26 26 27 27 27 27 27 27 27 28 28 29 29 28 28 28 29 29 29 29 29 29 29 29 30 30
25 26 26 27 27 27 27 27 28 28 28 27 27 28 27 27 27 27 27 27 28 28 28 28 28 28 29 29 29 29 29 30 30 29 29 29 29 28 30 30 31 30 31
27 27 27 28 28 28 29 29 28 28 28 29 29 29 28 28 29 28 28 28 29 28 28 28 28 29 29 29 29 30 30 30 29 29 29 28 29 29 29 30 30 31 31
27 28 28 28 29 28 28 29 29 29 29 29 29 29 29 30 29 29 29 29 29 29 28 28 28 28 29 30 30 30 30 30 30 30 30 29 30 31 31 30 30 30 30
28 28 29 29 29 29 29 29 29 29 29 29 30 30 30 30 30 30 30 30 30 30 29 29 29 29 29 29 29 29 29 30 30 30 31 31 31 31 31 31 31 31 31
28 28 29 29 29 29 30 30 30 30 30 30 31 31 31 31 30 30 30 31 31 30 30 29 29 29 30 30 30 29 29 29 29 30 30 31 31 31 32 32 32 32 31
28 28 29 30 30 31 31 31 31 30 30 31 31 32 32 32 31 31 31 31 30 30 30 29 29 29 29 30 30 30 29 29 29 30 30 30 30 31 32 33 33 33 33
29 29 30 31 31 31 31 31 31 31 31 31 32 32 32 32 32 32 31 31 30 30 30 29 29 29 29 29 29 29 30 30 31 31 31 31 32 32 31 32 32 33 34
30 30 30 31 31 31 31 31 31 31 31 30 31 31 31 32 32 32 32 31 31 30 29 29 29 29 29 28 29 29 30 31 31 31 31 31 31 32 31 31 31 32 33
30 31 31 30 30 30 30 31 30 30 31 30 30 30 31 32 32 31 31 30 29 29 28 28 28 28 29 29 28 29 29 30 30 31 31 31 31 31 30 30 30 30 30
31 31 31 31 30 29 29 29 29 29 30 30 30 30 30 30 31 31 31 30 29 29 28 28 28 29 29 28 28 29 29 30 30 30 30 30 30 30 30 30 30 30 30
31 31 30 30 29 29 29 29 29 29 29 29 29 29 30 30 29 29 30 30 29 29 28 28 28 28 28 29 28 28 28 29 29 29 30 30 30 30 30 30 30 30 30
30 30 30 29 29 28 28 29 29 29 29 28 29 29 29 29 29 29 30 30 29 28 28 28 27 27 27 27 27 28 28 28 28 28 28 29 29 30 30 30 30 30 29
31 30 30 29 29 29 29 29 30 30 30 29 30 30 30 30 30 30 30 29 29 28 28 27 27 26 26 26 27 27 28 28 27 27 28 28 29 29 30 29 29 29 28
32 32 31 31 31 30 30 31 31 31 30 30 30 30 30 30 30 30 30 29 29 29 29 28 27 27 27 27 27 27 27 27 27 27 27 27 27 28 28 28 28 28 28
32 32 32 32 32 32 32 32 32 32 31 30 30 30 30 29 29 29 29 29 29 29 28 28 28 27 27 28 28 27 27 27 27 28 28 28 27 27 27 27 28 28 28
32 32 32 32 32 33 33 33 32 31 31 30 30 30 30 30 29 29 28 28 28 28 28 27 27 27 28 28 28 28 27 27 27 27 27 28 28 28 27 27 27 27 28
33 34 33 33 33 33 33 32 32 31 31 30 29 29 29 29 29 28 28 28 28 28 28 27 28 28 27 27 28 28 27 27 26 27 27 27 27 27 27 26 26 26 26
34 34 34 34 34 33 33 32 32 31 31 30 30 30 29 29 29 28 27 27 27 28 27 27 28 28 27 27 27 27 27 26 26 25 25 26 26 26 26 26 25 25 26
34 34 34 34 33 33 33 33 32 32 31 30 30 30 29 29 28 27 27 27 27 26 26 26 27 27 27 27 27 26 26 26 26 26 25 25 24 24 24 24 24 24 24
33 33 33 32 32 31 31 32 31 31 31 30 30 29 28 28 28 28 27 27 26 26 26 27 27 27 26 26 26 26 26 26 26 26 25 25 24 23 23 23 23 23 23

GEFSGL_500_meanwind_342.txt.gz
Wind_Speed
20 21 22 22 22 22 23 23 23 23 22 23 23 24 23 23 22 22 22 22 23 23 23 23 24 24 24 24 24 24 23 23 22 23 24 24 25 24 24 24 24 24 25
20 21 22 22 22 23 23 24 24 24 23 23 24 24 24 24 24 24 23 23 23 24 24 24 25 25 25 25 25 25 25 24 24 24 24 25 26 26 26 26 26 26 26
20 21 21 22 23 23 23 24 24 24 24 24 24 25 25 25 25 25 25 25 24 25 25 25 25 25 25 26 26 27 26 26 25 25 25 26 27 27 27 28 28 28 28
21 22 22 22 23 24 24 24 24 24 25 25 25 26 26 26 27 27 27 27 26 26 26 26 26 26 26 27 27 28 28 28 27 27 27 27 27 28 28 28 29 29 29
21 22 22 23 24 24 25 25 25 25 25 26 26 26 27 27 28 28 28 28 27 27 27 27 27 27 27 27 28 29 29 29 29 29 28 28 28 29 29 29 29 29 29
22 22 23 24 24 24 25 25 26 26 26 27 27 27 27 28 28 28 28 28 28 28 28 28 28 28 28 28 29 29 29 30 30 30 30 29 29 30 30 30 30 30 30
23 24 24 25 25 25 26 26 26 27 27 27 28 28 29 29 29 29 28 27 28 29 29 29 30 29 29 29 30 30 30 30 30 30 30 30 30 30 30 30 31 31 31
25 25 25 26 26 26 27 27 27 28 28 29 29 29 30 30 30 30 30 29 29 29 30 31 31 31 31 30 30 31 31 31 31 31 31 31 31 30 30 31 31 31 31
26 26 26 27 27 28 28 28 29 29 30 30 31 31 30 30 30 30 30 31 31 30 31 31 30 30 31 32 32 31 31 31 32 32 32 31 31 31 31 31 31 31 31
26 27 27 28 28 28 28 28 28 29 29 30 31 31 31 30 30 31 31 31 31 31 31 31 30 30 31 32 31 31 31 31 32 32 32 31 31 31 31 32 32 32 32
27 27 28 28 29 29 28 28 29 30 30 31 31 31 31 31 31 31 31 31 31 31 31 31 31 31 31 32 32 32 31 32 33 33 33 32 31 31 30 31 31 32 32
28 28 28 29 29 29 29 29 30 30 31 31 31 31 31 31 32 31 31 31 31 31 32 32 32 31 31 32 32 33 33 33 33 33 32 32 31 30 30 30 30 31 32
29 29 29 29 29 29 29 30 30 31 31 31 31 31 31 31 31 31 31 30 31 31 32 32 32 32 32 31 31 32 33 33 33 32 31 31 30 31 31 31 30 30 31
30 30 30 30 31 31 30 31 31 31 32 31 32 32 32 31 31 30 30 29 30 31 31 31 32 32 32 33 33 32 32 31 31 31 31 30 30 30 31 31 31 31 31
32 32 32 32 32 32 31 31 31 31 31 32 32 31 32 31 30 30 29 29 29 30 30 29 30 30 30 30 31 31 30 29 30 31 31 30 30 31 31 31 31 32 32
32 32 33 33 32 31 31 31 31 31 31 31 31 31 30 30 29 28 28 28 28 29 29 29 30 30 30 30 30 30 30 30 30 30 31 30 30 30 30 31 31 32 32
32 31 32 32 32 32 31 31 31 32 32 31 30 29 28 27 27 27 27 28 28 28 29 29 29 30 30 31 30 30 30 30 30 30 30 30 30 30 31 31 31 32 32
31 31 32 32 32 32 32 32 32 32 31 30 29 29 27 27 27 28 28 28 29 29 29 29 29 29 29 30 30 30 31 31 31 31 31 30 30 30 31 31 31 32 32
32 32 32 33 33 33 32 32 32 31 30 30 30 29 29 29 28 28 29 29 29 29 30 30 29 29 29 29 29 29 30 30 31 31 30 30 30 30 30 30 30 31 31
32 32 32 33 33 33 33 33 32 32 32 31 31 30 30 30 30 30 30 30 30 30 30 30 30 29 29 29 29 29 29 29 30 30 30 29 29 29 30 30 30 30 30
32 32 32 32 32 32 32 32 33 32 32 32 32 32 31 31 30 30 30 30 31 31 31 30 30 29 29 29 29 29 29 29 29 30 29 29 29 29 29 30 30 29 29
32 32 32 31 32 32 32 33 33 32 32 32 32 31 31 31 31 31 31 31 31 31 30 30 30 30 30 29 29 29 29 29 29 29 29 29 29 28 29 29 29 29 29
33 33 32 32 32 33 33 32 31 31 31 31 31 32 32 32 32 32 32 32 31 30 30 30 30 30 29 29 29 29 28 29 29 28 28 29 28 28 28 28 28 29 29
32 32 32 32 32 33 33 32 31 30 30 31 31 32 32 32 31 31 31 30 30 30 30 29 29 29 29 29 28 28 28 29 29 29 29 29 28 28 27 27 27 27 28
32 32 32 32 32 32 32 31 31 30 30 30 30 31 30 30 30 30 29 29 30 30 29 29 29 29 29 29 29 28 29 29 29 29 29 28 27 27 27 27 27 27 27
31 31 31 32 32 32 31 31 30 30 30 30 30 29 29 29 29 29 29 29 29 29 29 29 28 28 28 28 28 29 29 29 29 28 28 27 27 27 27 27 27 27 26